| time (UTC) | temp F | wind direction | speed MPH | gust MPH | rain 1hr in | rain 24hr in | rain mn in | humidity % | barometer mb |
| 20260505234646 | 50 | 286 | 5.0 | 12.0 | 0.00 | 0.00 | 0.00 | 44 | 1008.1 |
| 20260505234125 | 50 | 286 | 5.0 | 12.0 | 0.00 | 0.00 | 0.00 | 44 | 1008.0 |
| 20260505233616 | 50 | 304 | 5.0 | 13.0 | 0.00 | 0.00 | 0.00 | 45 | 1008.0 |
| 20260505233111 | 50 | 294 | 5.0 | 13.0 | 0.00 | 0.00 | 0.00 | 45 | 1007.9 |
| 20260505232610 | 51 | 292 | 4.0 | 10.0 | 0.00 | 0.00 | 0.00 | 45 | 1007.9 |
| 20260505232109 | 50 | 285 | 4.0 | 10.0 | 0.00 | 0.00 | 0.00 | 45 | 1007.9 |
| 20260505231605 | 49 | 294 | 3.0 | 10.0 | 0.00 | 0.00 | 0.00 | 46 | 1007.9 |
| 20260505231104 | 49 | 260 | 3.0 | 10.0 | 0.00 | 0.00 | 0.00 | 47 | 1007.9 |
| 20260505230604 | 49 | 322 | 4.0 | 13.0 | 0.00 | 0.00 | 0.00 | 46 | 1007.9 |
| 20260505230104 | 49 | 301 | 5.0 | 13.0 | 0.00 | 0.00 | 0.00 | 45 | 1007.9 |
| 20260505225603 | 49 | 289 | 5.0 | 13.0 | 0.00 | 0.00 | 0.00 | 45 | 1007.9 |
| 20260505225101 | 50 | 313 | 5.0 | 13.0 | 0.00 | 0.00 | 0.00 | 43 | 1007.9 |
| 20260505224557 | 51 | 293 | 5.0 | 13.0 | 0.00 | 0.00 | 0.00 | 43 | 1007.9 |
| 20260505224057 | 51 | 312 | 4.0 | 12.0 | 0.00 | 0.00 | 0.00 | 44 | 1007.7 |
| 20260505223558 | 50 | 311 | 4.0 | 13.0 | 0.00 | 0.00 | 0.00 | 47 | 1007.8 |
| 20260505223319 | 49 | 312 | 5.0 | 13.0 | 0.00 | 0.00 | 0.00 | 45 | 1007.8 |
| 20260505222549 | 49 | 343 | 4.0 | 13.0 | 0.00 | 0.00 | 0.00 | 45 | 1007.8 |
| 20260505222050 | 49 | 281 | 3.0 | 9.0 | 0.00 | 0.00 | 0.00 | 45 | 1007.8 |
| 20260505221538 | 49 | 225 | 4.0 | 12.0 | 0.00 | 0.00 | 0.00 | 45 | 1007.8 |
| 20260505221037 | 49 | 302 | 4.0 | 12.0 | 0.00 | 0.00 | 0.00 | 44 | 1007.8 |
| 20260505220536 | 49 | 289 | 4.0 | 10.0 | 0.00 | 0.00 | 0.00 | 45 | 1007.8 |
| 20260505220303 | 49 | 307 | 3.0 | 10.0 | 0.00 | 0.00 | 0.00 | 45 | 1007.9 |
| 20260505215526 | 49 | 254 | 3.0 | 10.0 | 0.00 | 0.00 | 0.00 | 45 | 1007.8 |
| 20260505215026 | 49 | 292 | 5.0 | 14.0 | 0.00 | 0.00 | 0.00 | 44 | 1007.9 |
| 20260505214748 | 50 | 328 | 6.0 | 16.0 | 0.00 | 0.00 | 0.00 | 45 | 1008.0 |
| 20260505214239 | 50 | 256 | 6.0 | 16.0 | 0.00 | 0.00 | 0.00 | 43 | 1007.9 |
| 20260505213518 | 51 | 236 | 5.0 | 14.0 | 0.00 | 0.00 | 0.00 | 44 | 1007.9 |
| 20260505213018 | 50 | 259 | 4.0 | 11.0 | 0.00 | 0.00 | 0.00 | 45 | 1008.0 |
| 20260505212738 | 50 | 257 | 4.0 | 12.0 | 0.00 | 0.00 | 0.00 | 45 | 1008.0 |
| 20260505212019 | 50 | 5 | 4.0 | 12.0 | 0.00 | 0.00 | 0.00 | 45 | 1007.9 |
| 20260505211514 | 50 | 302 | 5.0 | 13.0 | 0.00 | 0.00 | 0.00 | 44 | 1008.0 |
| 20260505211008 | 50 | 311 | 5.0 | 13.0 | 0.00 | 0.00 | 0.00 | 43 | 1008.1 |
| 20260505210506 | 50 | 332 | 5.0 | 10.0 | 0.00 | 0.00 | 0.00 | 45 | 1008.1 |
| 20260505210002 | 49 | 288 | 4.0 | 10.0 | 0.00 | 0.00 | 0.00 | 45 | 1008.1 |
| 20260505205503 | 50 | 346 | 5.0 | 15.0 | 0.00 | 0.00 | 0.00 | 44 | 1008.2 |
| 20260505205219 | 51 | 283 | 4.0 | 15.0 | 0.00 | 0.00 | 0.00 | 44 | 1008.1 |
| 20260505204504 | 50 | 296 | 4.0 | 14.0 | 0.00 | 0.00 | 0.00 | 47 | 1008.1 |
| 20260505204003 | 49 | 300 | 4.0 | 12.0 | 0.00 | 0.00 | 0.00 | 46 | 1008.0 |
| 20260505203459 | 49 | 313 | 4.0 | 12.0 | 0.00 | 0.00 | 0.00 | 45 | 1008.1 |
| 20260505203000 | 49 | 274 | 4.0 | 12.0 | 0.00 | 0.00 | 0.00 | 46 | 1008.2 |
| 20260505202453 | 49 | 248 | 4.0 | 12.0 | 0.00 | 0.00 | 0.00 | 46 | 1008.2 |
| 20260505201953 | 49 | 308 | 4.0 | 12.0 | 0.00 | 0.00 | 0.00 | 46 | 1008.3 |
| 20260505201453 | 49 | 315 | 4.0 | 12.0 | 0.00 | 0.00 | 0.00 | 45 | 1008.3 |
| 20260505200946 | 49 | 290 | 5.0 | 13.0 | 0.00 | 0.00 | 0.00 | 46 | 1008.2 |
| 20260505200707 | 49 | 255 | 5.0 | 11.0 | 0.00 | 0.00 | 0.00 | 45 | 1008.3 |
| 20260505195942 | 50 | 282 | 5.0 | 14.0 | 0.00 | 0.00 | 0.00 | 45 | 1008.3 |
| 20260505195438 | 50 | 319 | 5.0 | 14.0 | 0.00 | 0.00 | 0.00 | 46 | 1008.2 |
| 20260505195207 | 50 | 320 | 6.0 | 14.0 | 0.00 | 0.00 | 0.00 | 46 | 1008.3 |
| 20260505194434 | 49 | 321 | 6.0 | 14.0 | 0.00 | 0.00 | 0.00 | 48 | 1008.2 |
| 20260505193934 | 49 | 311 | 5.0 | 14.0 | 0.00 | 0.00 | 0.00 | 46 | 1008.2 |
| 20260505193434 | 49 | 9 | 5.0 | 14.0 | 0.00 | 0.00 | 0.00 | 46 | 1008.2 |
| 20260505192932 | 49 | 294 | 5.0 | 13.0 | 0.00 | 0.00 | 0.00 | 48 | 1008.2 |
| 20260505192432 | 49 | 288 | 4.0 | 13.0 | 0.00 | 0.00 | 0.00 | 46 | 1008.3 |
| 20260505191929 | 49 | 350 | 5.0 | 15.0 | 0.00 | 0.00 | 0.00 | 46 | 1008.2 |
| 20260505191428 | 50 | 291 | 4.0 | 15.0 | 0.00 | 0.00 | 0.00 | 45 | 1008.3 |
| 20260505190925 | 50 | 261 | 4.0 | 11.0 | 0.00 | 0.00 | 0.00 | 46 | 1008.2 |
| 20260505190424 | 50 | 281 | 5.0 | 13.0 | 0.00 | 0.00 | 0.00 | 45 | 1008.3 |
| 20260505185921 | 50 | 258 | 5.0 | 13.0 | 0.00 | 0.00 | 0.00 | 45 | 1008.3 |
| 20260505185424 | 49 | 294 | 5.0 | 11.0 | 0.00 | 0.00 | 0.00 | 45 | 1008.4 |
| 20260505185149 | 49 | 304 | 5.0 | 11.0 | 0.00 | 0.00 | 0.00 | 45 | 1008.3 |
| 20260505184420 | 49 | 303 | 4.0 | 14.0 | 0.00 | 0.00 | 0.00 | 45 | 1008.3 |
| 20260505183919 | 49 | 296 | 4.0 | 14.0 | 0.00 | 0.00 | 0.00 | 45 | 1008.3 |
| 20260505183416 | 49 | 300 | 5.0 | 14.0 | 0.00 | 0.00 | 0.00 | 44 | 1008.3 |
| 20260505182911 | 49 | 284 | 5.0 | 14.0 | 0.00 | 0.00 | 0.00 | 46 | 1008.2 |
| 20260505182630 | 49 | 254 | 5.0 | 13.0 | 0.00 | 0.00 | 0.00 | 46 | 1008.2 |
| 20260505181907 | 49 | 139 | 5.0 | 13.0 | 0.00 | 0.00 | 0.00 | 44 | 1008.2 |
| 20260505181404 | 49 | 5 | 7.0 | 15.0 | 0.00 | 0.00 | 0.00 | 45 | 1008.3 |
| 20260505180951 | 49 | 183 | 6.0 | 19.0 | 0.00 | 0.00 | 0.00 | 46 | 1008.2 |
| 20260505175856 | 48 | 313 | 4.0 | 11.0 | 0.00 | 0.00 | 0.00 | 45 | 1008.2 |
| 20260505175357 | 48 | 233 | 4.0 | 10.0 | 0.00 | 0.00 | 0.00 | 46 | 1008.2 |
| 20260505174858 | 48 | 200 | 4.0 | 10.0 | 0.00 | 0.00 | 0.00 | 47 | 1008.2 |
| 20260505174356 | 47 | 327 | 4.0 | 12.0 | 0.00 | 0.00 | 0.00 | 47 | 1008.2 |
| 20260505173858 | 48 | 291 | 4.0 | 12.0 | 0.00 | 0.00 | 0.00 | 46 | 1008.3 |
| 20260505173357 | 48 | 350 | 4.0 | 14.0 | 0.00 | 0.00 | 0.00 | 45 | 1008.1 |
| 20260505172854 | 48 | 292 | 4.0 | 14.0 | 0.00 | 0.00 | 0.00 | 46 | 1008.3 |
| 20260505172354 | 47 | 296 | 5.0 | 11.0 | 0.00 | 0.00 | 0.00 | 47 | 1008.2 |
| 20260505171854 | 48 | 5 | 5.0 | 11.0 | 0.00 | 0.00 | 0.00 | 47 | 1008.3 |
| 20260505171351 | 48 | 277 | 5.0 | 13.0 | 0.00 | 0.00 | 0.00 | 45 | 1008.3 |
| 20260505170852 | 48 | 268 | 5.0 | 14.0 | 0.00 | 0.00 | 0.00 | 46 | 1008.3 |
| 20260505170344 | 48 | 269 | 6.0 | 15.0 | 0.00 | 0.00 | 0.00 | 48 | 1008.3 |
| 20260505165844 | 48 | 331 | 6.0 | 15.0 | 0.00 | 0.00 | 0.00 | 53 | 1008.2 |
| 20260505165343 | 48 | 246 | 4.0 | 10.0 | 0.00 | 0.00 | 0.00 | 48 | 1008.2 |
| 20260505164839 | 48 | 304 | 5.0 | 16.0 | 0.00 | 0.00 | 0.00 | 53 | 1008.2 |
| 20260505164336 | 47 | 12 | 6.0 | 16.0 | 0.00 | 0.00 | 0.00 | 47 | 1008.2 |
| 20260505163839 | 47 | 273 | 5.0 | 12.0 | 0.00 | 0.00 | 0.00 | 51 | 1008.2 |
| 20260505163333 | 47 | 304 | 5.0 | 12.0 | 0.00 | 0.00 | 0.00 | 49 | 1008.2 |
| 20260505163053 | 46 | 336 | 4.0 | 11.0 | 0.00 | 0.00 | 0.00 | 51 | 1008.2 |
| 20260505162329 | 46 | 278 | 5.0 | 12.0 | 0.00 | 0.00 | 0.00 | 51 | 1008.3 |
| 20260505161826 | 46 | 342 | 5.0 | 12.0 | 0.00 | 0.00 | 0.00 | 49 | 1008.2 |
| 20260505161327 | 47 | 302 | 4.0 | 12.0 | 0.00 | 0.00 | 0.00 | 50 | 1008.3 |
| 20260505160828 | 46 | 297 | 4.0 | 12.0 | 0.00 | 0.00 | 0.00 | 51 | 1008.2 |
| 20260505160329 | 46 | 285 | 4.0 | 16.0 | 0.00 | 0.00 | 0.00 | 50 | 1008.3 |
| 20260505153320 | 45 | 336 | 5.0 | 13.0 | 0.00 | 0.00 | 0.00 | 53 | 1008.4 |
| 20260505152817 | 45 | 287 | 5.0 | 13.0 | 0.00 | 0.00 | 0.00 | 52 | 1008.4 |
| 20260505152804 | 44 | 292 | 5.0 | 12.0 | 0.00 | 0.00 | 0.00 | 52 | 1008.4 |
| 20260505152033 | 45 | 252 | 5.0 | 12.0 | 0.00 | 0.00 | 0.00 | 52 | 1008.3 |
| 20260505151308 | 44 | 293 | 4.0 | 12.0 | 0.00 | 0.00 | 0.00 | 52 | 1008.2 |
| 20260505150807 | 44 | 196 | 4.0 | 12.0 | 0.00 | 0.00 | 0.00 | 52 | 1008.2 |
| 20260505150311 | 44 | 294 | 4.0 | 11.0 | 0.00 | 0.00 | 0.00 | 52 | 1008.2 |
| 20260505140242 | 42 | 298 | 4.0 | 11.0 | 0.00 | 0.00 | 0.00 | 55 | 1007.7 |
| 20260505130215 | 39 | 319 | 5.0 | 14.0 | 0.00 | 0.00 | 0.00 | 57 | 1007.1 |
| 20260505124932 | 38 | 346 | 4.0 | 12.0 | 0.00 | 0.00 | 0.00 | 58 | 1007.0 |
| 20260505124155 | 38 | 306 | 4.0 | 11.0 | 0.00 | 0.00 | 0.00 | 59 | 1006.9 |
| 20260505123655 | 38 | 5 | 4.0 | 11.0 | 0.00 | 0.00 | 0.00 | 61 | 1006.8 |
| 20260505123155 | 38 | 315 | 4.0 | 11.0 | 0.00 | 0.00 | 0.00 | 62 | 1006.7 |
| 20260505122916 | 38 | 333 | 4.0 | 11.0 | 0.00 | 0.00 | 0.00 | 62 | 1006.7 |
| 20260505122151 | 38 | 322 | 4.0 | 11.0 | 0.00 | 0.00 | 0.00 | 64 | 1006.7 |
| 20260505121650 | 37 | 301 | 3.0 | 10.0 | 0.00 | 0.00 | 0.00 | 65 | 1006.7 |
| 20260505121355 | 37 | 303 | 3.0 | 9.0 | 0.00 | 0.00 | 0.00 | 66 | 1006.7 |
| 20260505120632 | 37 | 314 | 2.0 | 7.0 | 0.00 | 0.00 | 0.00 | 67 | 1006.6 |
| 20260505120358 | 37 | 258 | 2.0 | 6.0 | 0.00 | 0.00 | 0.00 | 68 | 1006.5 |
| 20260505115615 | 37 | 281 | 2.0 | 6.0 | 0.00 | 0.00 | 0.00 | 69 | 1006.4 |
| 20260505115113 | 37 | 295 | 1.0 | 4.0 | 0.00 | 0.00 | 0.00 | 70 | 1006.3 |
| 20260505114604 | 36 | 320 | 1.0 | 4.0 | 0.00 | 0.00 | 0.00 | 71 | 1006.4 |
| 20260505114041 | 36 | 279 | 1.0 | 4.0 | 0.00 | 0.00 | 0.00 | 71 | 1006.2 |
| 20260505113539 | 37 | 279 | 2.0 | 5.0 | 0.00 | 0.00 | 0.00 | 70 | 1006.2 |
| 20260505113035 | 37 | 306 | 1.0 | 5.0 | 0.00 | 0.00 | 0.00 | 70 | 1006.1 |
| 20260505112533 | 37 | 317 | 1.0 | 4.0 | 0.00 | 0.00 | 0.00 | 70 | 1006.1 |
| 20260505112035 | 37 | 299 | 2.0 | 5.0 | 0.00 | 0.00 | 0.00 | 70 | 1006.0 |
| 20260505111752 | 37 | 298 | 2.0 | 5.0 | 0.00 | 0.00 | 0.00 | 70 | 1006.0 |
| 20260505111028 | 37 | 297 | 2.0 | 5.0 | 0.00 | 0.00 | 0.00 | 70 | 1005.9 |
| 20260505110526 | 37 | 302 | 2.0 | 5.0 | 0.00 | 0.00 | 0.00 | 70 | 1005.9 |
| 20260505101940 | 38 | 301 | 2.0 | 9.0 | 0.00 | 0.00 | 0.00 | 70 | 1005.5 |
| 20260505101431 | 38 | 292 | 3.0 | 9.0 | 0.00 | 0.00 | 0.00 | 70 | 1005.6 |
| 20260505100927 | 38 | 307 | 3.0 | 9.0 | 0.00 | 0.00 | 0.00 | 70 | 1005.5 |
| 20260505100423 | 38 | 308 | 2.0 | 8.0 | 0.00 | 0.00 | 0.00 | 70 | 1005.5 |
| 20260505095926 | 38 | 304 | 2.0 | 8.0 | 0.00 | 0.00 | 0.00 | 70 | 1005.5 |
| 20260505095425 | 38 | 313 | 2.0 | 8.0 | 0.00 | 0.00 | 0.00 | 70 | 1005.5 |
| 20260505094923 | 38 | 301 | 2.0 | 8.0 | 0.00 | 0.00 | 0.00 | 70 | 1005.6 |
| 20260505094423 | 38 | 285 | 2.0 | 6.0 | 0.00 | 0.00 | 0.00 | 70 | 1005.6 |
| 20260505093923 | 39 | 315 | 2.0 | 6.0 | 0.00 | 0.00 | 0.00 | 69 | 1005.5 |
| 20260505093416 | 39 | 315 | 2.0 | 6.0 | 0.00 | 0.00 | 0.00 | 69 | 1005.5 |
| 20260505092916 | 39 | 317 | 3.0 | 6.0 | 0.00 | 0.00 | 0.00 | 69 | 1005.5 |
| 20260505092416 | 39 | 312 | 3.0 | 7.0 | 0.00 | 0.00 | 0.00 | 68 | 1005.4 |
| 20260505091908 | 39 | 298 | 2.0 | 7.0 | 0.00 | 0.00 | 0.00 | 69 | 1005.3 |
| 20260505091403 | 39 | 293 | 2.0 | 6.0 | 0.00 | 0.00 | 0.00 | 68 | 1005.2 |
| 20260505090907 | 39 | 295 | 2.0 | 6.0 | 0.00 | 0.00 | 0.00 | 68 | 1005.1 |
| 20260505090358 | 39 | 299 | 2.0 | 5.0 | 0.00 | 0.00 | 0.00 | 68 | 1005.1 |
| 20260505085857 | 39 | 301 | 2.0 | 4.0 | 0.00 | 0.00 | 0.00 | 67 | 1005.0 |
| 20260505085400 | 40 | 304 | 2.0 | 8.0 | 0.00 | 0.00 | 0.00 | 67 | 1004.9 |
| 20260505084850 | 40 | 293 | 2.0 | 8.0 | 0.00 | 0.00 | 0.00 | 67 | 1004.9 |
| 20260505084347 | 40 | 290 | 3.0 | 6.0 | 0.00 | 0.00 | 0.00 | 66 | 1004.8 |
| 20260505083847 | 40 | 347 | 3.0 | 6.0 | 0.00 | 0.00 | 0.00 | 66 | 1004.8 |
| 20260505083343 | 40 | 279 | 2.0 | 7.0 | 0.00 | 0.00 | 0.00 | 66 | 1004.7 |
| 20260505082926 | 40 | 246 | 2.0 | 7.0 | 0.00 | 0.00 | 0.00 | 65 | 1004.6 |
| 20260505082056 | 40 | 294 | 2.0 | 8.0 | 0.00 | 0.00 | 0.00 | 65 | 1004.5 |
| 20260505081326 | 40 | 286 | 2.0 | 8.0 | 0.00 | 0.00 | 0.00 | 65 | 1004.5 |
| 20260505081042 | 40 | 300 | 2.0 | 8.0 | 0.00 | 0.00 | 0.00 | 65 | 1004.3 |
| 20260505080320 | 40 | 317 | 2.0 | 8.0 | 0.00 | 0.00 | 0.00 | 64 | 1004.4 |
| 20260505075819 | 41 | 301 | 2.0 | 9.0 | 0.00 | 0.00 | 0.00 | 63 | 1004.3 |
| 20260505075322 | 41 | 311 | 2.0 | 9.0 | 0.00 | 0.00 | 0.00 | 63 | 1004.3 |
| 20260505074819 | 41 | 293 | 3.0 | 10.0 | 0.00 | 0.00 | 0.00 | 63 | 1004.4 |
| 20260505074318 | 41 | 288 | 3.0 | 10.0 | 0.00 | 0.00 | 0.00 | 62 | 1004.4 |
| 20260505073812 | 41 | 295 | 2.0 | 7.0 | 0.00 | 0.00 | 0.00 | 62 | 1004.4 |
| 20260505073533 | 41 | 288 | 2.0 | 5.0 | 0.00 | 0.00 | 0.00 | 61 | 1004.3 |
| 20260505072809 | 42 | 321 | 2.0 | 7.0 | 0.00 | 0.00 | 0.00 | 61 | 1004.3 |
| 20260505072305 | 42 | 288 | 2.0 | 7.0 | 0.00 | 0.00 | 0.00 | 60 | 1004.3 |
| 20260505071804 | 42 | 273 | 2.0 | 8.0 | 0.00 | 0.00 | 0.00 | 59 | 1004.2 |
| 20260505071305 | 42 | 246 | 2.0 | 8.0 | 0.00 | 0.00 | 0.00 | 59 | 1004.2 |
| 20260505070802 | 42 | 273 | 2.0 | 5.0 | 0.00 | 0.00 | 0.00 | 59 | 1004.2 |
| 20260505070302 | 42 | 275 | 2.0 | 7.0 | 0.00 | 0.00 | 0.00 | 59 | 1004.3 |
| 20260505065754 | 42 | 321 | 2.0 | 8.0 | 0.00 | 0.00 | 0.00 | 58 | 1004.3 |
| 20260505065246 | 42 | 275 | 2.0 | 8.0 | 0.00 | 0.00 | 0.00 | 58 | 1004.1 |
| 20260505064743 | 42 | 282 | 2.0 | 7.0 | 0.00 | 0.00 | 0.00 | 58 | 1004.2 |
| 20260505064235 | 43 | 320 | 2.0 | 10.0 | 0.00 | 0.00 | 0.00 | 58 | 1004.2 |
| 20260505063726 | 43 | 275 | 2.0 | 10.0 | 0.00 | 0.00 | 0.00 | 58 | 1004.2 |
| 20260505063447 | 43 | 309 | 3.0 | 10.0 | 0.00 | 0.00 | 0.00 | 58 | 1004.1 |
| 20260505062713 | 43 | 301 | 3.0 | 10.0 | 0.00 | 0.00 | 0.00 | 57 | 1004.1 |
| 20260505062212 | 43 | 290 | 3.0 | 7.0 | 0.00 | 0.00 | 0.00 | 57 | 1004.1 |
| 20260505061712 | 43 | 292 | 3.0 | 10.0 | 0.00 | 0.00 | 0.00 | 57 | 1004.1 |
| 20260505061200 | 43 | 307 | 3.0 | 10.0 | 0.00 | 0.00 | 0.00 | 57 | 1004.1 |
| 20260505060700 | 43 | 291 | 2.0 | 9.0 | 0.00 | 0.00 | 0.00 | 57 | 1004.2 |
| 20260505060153 | 43 | 222 | 2.0 | 9.0 | 0.00 | 0.00 | 0.00 | 57 | 1004.1 |
| 20260505055647 | 44 | 274 | 3.0 | 8.0 | 0.00 | 0.00 | 0.00 | 56 | 1004.0 |
| 20260505055144 | 44 | 273 | 3.0 | 8.0 | 0.00 | 0.00 | 0.00 | 56 | 1004.0 |
| 20260505054639 | 44 | 268 | 2.0 | 6.0 | 0.00 | 0.00 | 0.00 | 56 | 1003.9 |
| 20260505054400 | 44 | 290 | 3.0 | 10.0 | 0.00 | 0.00 | 0.00 | 56 | 1003.9 |
| 20260505053849 | 44 | 275 | 4.0 | 10.0 | 0.00 | 0.00 | 0.00 | 56 | 1004.0 |
| 20260505053132 | 44 | 318 | 3.0 | 10.0 | 0.00 | 0.00 | 0.00 | 57 | 1004.0 |
| 20260505052845 | 44 | 297 | 2.0 | 6.0 | 0.00 | 0.00 | 0.00 | 57 | 1003.9 |
| 20260505052109 | 44 | 281 | 3.0 | 10.0 | 0.00 | 0.00 | 0.00 | 57 | 1003.9 |
| 20260505051610 | 44 | 275 | 3.0 | 10.0 | 0.00 | 0.00 | 0.00 | 56 | 1003.6 |
| 20260505051109 | 44 | 290 | 2.0 | 8.0 | 0.00 | 0.00 | 0.00 | 56 | 1003.6 |
| 20260505050609 | 44 | 282 | 2.0 | 8.0 | 0.00 | 0.00 | 0.00 | 56 | 1003.6 |
| 20260505050110 | 44 | 313 | 2.0 | 4.0 | 0.00 | 0.00 | 0.00 | 56 | 1003.6 |
| 20260505041752 | 45 | 281 | 2.0 | 7.0 | 0.00 | 0.00 | 0.00 | 55 | 1003.5 |
| 20260505041031 | 45 | 271 | 2.0 | 7.0 | 0.00 | 0.00 | 0.00 | 55 | 1003.4 |
| 20260505040755 | 45 | 269 | 1.0 | 6.0 | 0.00 | 0.00 | 0.00 | 55 | 1003.4 |
| 20260505040118 | 45 | 252 | 2.0 | 5.0 | 0.00 | 0.00 | 0.00 | 55 | 1003.5 |
| 20260505035021 | 45 | 241 | 1.0 | 6.0 | 0.00 | 0.00 | 0.00 | 55 | 1003.4 |
| 20260505034518 | 46 | 240 | 2.0 | 8.0 | 0.00 | 0.00 | 0.00 | 54 | 1003.4 |
| 20260505034016 | 45 | 238 | 3.0 | 16.0 | 0.00 | 0.00 | 0.00 | 54 | 1003.4 |
| 20260505033513 | 45 | 274 | 2.0 | 16.0 | 0.00 | 0.00 | 0.00 | 55 | 1003.3 |
| 20260505033012 | 45 | 259 | 1.0 | 4.0 | 0.00 | 0.00 | 0.00 | 55 | 1003.3 |
| 20260505032509 | 45 | 263 | 1.0 | 4.0 | 0.00 | 0.00 | 0.00 | 54 | 1003.3 |
| 20260505032008 | 45 | 268 | 2.0 | 4.0 | 0.00 | 0.00 | 0.00 | 54 | 1003.4 |
| 20260505031507 | 45 | 260 | 2.0 | 4.0 | 0.00 | 0.00 | 0.00 | 53 | 1003.3 |
| 20260505031230 | 46 | 259 | 1.0 | 4.0 | 0.00 | 0.00 | 0.00 | 53 | 1003.3 |
| 20260505030506 | 46 | 264 | 1.0 | 6.0 | 0.00 | 0.00 | 0.00 | 53 | 1003.2 |
| 20260505030010 | 46 | 264 | 1.0 | 6.0 | 0.00 | 0.00 | 0.00 | 52 | 1003.3 |
| 20260505025508 | 47 | 250 | 1.0 | 6.0 | 0.00 | 0.00 | 0.00 | 52 | 1003.2 |
| 20260505025001 | 47 | 252 | 1.0 | 6.0 | 0.00 | 0.00 | 0.00 | 51 | 1003.2 |
| 20260505024502 | 47 | 259 | 1.0 | 5.0 | 0.00 | 0.00 | 0.00 | 51 | 1003.1 |
| 20260505024221 | 47 | 267 | 0.0 | 2.0 | 0.00 | 0.00 | 0.00 | 50 | 1003.0 |
| 20260505023456 | 47 | 267 | 1.0 | 3.0 | 0.00 | 0.00 | 0.00 | 50 | 1003.1 |
| 20260505022947 | 47 | 267 | 1.0 | 7.0 | 0.00 | 0.00 | 0.00 | 49 | 1003.0 |
| 20260505022442 | 47 | 267 | 1.0 | 7.0 | 0.00 | 0.00 | 0.00 | 50 | 1002.9 |
| 20260505021940 | 47 | 298 | 1.0 | 4.0 | 0.00 | 0.00 | 0.00 | 49 | 1002.9 |
| 20260505021441 | 47 | 272 | 2.0 | 4.0 | 0.00 | 0.00 | 0.00 | 49 | 1002.8 |
| 20260505021416 | 47 | 248 | 2.0 | 4.0 | 0.00 | 0.00 | 0.00 | 48 | 1002.7 |
| 20260505020427 | 47 | 233 | 2.0 | 4.0 | 0.00 | 0.00 | 0.00 | 49 | 1002.7 |
| 20260505015925 | 48 | 264 | 2.0 | 7.0 | 0.00 | 0.00 | 0.00 | 48 | 1002.6 |
| 20260505015422 | 48 | 282 | 2.0 | 7.0 | 0.00 | 0.00 | 0.00 | 48 | 1002.5 |
| 20260505014922 | 48 | 302 | 3.0 | 8.0 | 0.00 | 0.00 | 0.00 | 48 | 1002.5 |
| 20260505014422 | 48 | 254 | 2.0 | 8.0 | 0.00 | 0.00 | 0.00 | 49 | 1002.5 |
| 20260505013919 | 48 | 283 | 2.0 | 6.0 | 0.00 | 0.00 | 0.00 | 48 | 1002.4 |
| 20260505013419 | 48 | 283 | 2.0 | 6.0 | 0.00 | 0.00 | 0.00 | 47 | 1002.3 |
| 20260505012915 | 49 | 288 | 2.0 | 5.0 | 0.00 | 0.00 | 0.00 | 47 | 1002.3 |
| 20260505012414 | 49 | 324 | 2.0 | 8.0 | 0.00 | 0.00 | 0.00 | 47 | 1002.2 |
| 20260505011913 | 49 | 326 | 2.0 | 8.0 | 0.00 | 0.00 | 0.00 | 47 | 1002.2 |
| 20260505011848 | 49 | 293 | 3.0 | 13.0 | 0.00 | 0.00 | 0.00 | 47 | 1002.1 |
| 20260505011127 | 49 | 309 | 4.0 | 13.0 | 0.00 | 0.00 | 0.00 | 47 | 1002.1 |
| 20260505010613 | 50 | 304 | 5.0 | 13.0 | 0.00 | 0.00 | 0.00 | 46 | 1002.0 |
| 20260505005849 | 50 | 279 | 6.0 | 17.0 | 0.00 | 0.00 | 0.00 | 45 | 1001.9 |
| 20260505005348 | 50 | 316 | 5.0 | 17.0 | 0.00 | 0.00 | 0.00 | 45 | 1001.9 |
| 20260505004841 | 50 | 307 | 5.0 | 11.0 | 0.00 | 0.00 | 0.00 | 46 | 1001.9 |
| 20260505004344 | 50 | 266 | 6.0 | 17.0 | 0.00 | 0.00 | 0.00 | 47 | 1001.8 |
| 20260505004101 | 50 | 294 | 7.0 | 17.0 | 0.00 | 0.00 | 0.00 | 48 | 1001.8 |
| 20260505003337 | 50 | 323 | 7.0 | 15.0 | 0.00 | 0.00 | 0.00 | 48 | 1001.9 |
| 20260505002835 | 50 | 240 | 6.0 | 15.0 | 0.00 | 0.00 | 0.00 | 48 | 1001.8 |
| 20260505002333 | 50 | 341 | 6.0 | 14.0 | 0.00 | 0.00 | 0.00 | 48 | 1001.7 |
| 20260505001831 | 50 | 296 | 7.0 | 14.0 | 0.00 | 0.00 | 0.00 | 48 | 1001.6 |
| 20260505001557 | 51 | 308 | 7.0 | 19.0 | 0.00 | 0.00 | 0.00 | 47 | 1001.6 |
| 20260505000829 | 51 | 338 | 7.0 | 19.0 | 0.00 | 0.00 | 0.00 | 46 | 1001.4 |
| 20260505000330 | 52 | 308 | 6.0 | 16.0 | 0.00 | 0.00 | 0.00 | 46 | 1001.3 |
| 20260504235828 | 52 | 318 | 5.0 | 16.0 | 0.00 | 0.00 | 0.00 | 46 | 1001.2 |
| 20260504235810 | 52 | 306 | 6.0 | 16.0 | 0.00 | 0.00 | 0.00 | 46 | 1001.1 |